Weather History for Hettinger, ND

Change the Weather History Date:

Sunday, March 3, 2013

  Actual Average Record
Temperature  
Mean Temperature 44 °F -  
Max Temperature 56 °F 36 °F 60 °F (2005)
Min Temperature 32 °F 14 °F -11 °F (2002)
Degree Days  
Heating Degree Days 21 40  
Month to date heating degree days 80 121  
Since 1 July heating degree days 6038 6437  
Cooling Degree Days 0 0  
Month to date cooling degree days 0 0  
Year to date cooling degree days 0 0  
Moisture  
Dew Point 34 °F    
Average Humidity 84    
Maximum Humidity 92    
Minimum Humidity 43    
Precipitation  
Precipitation 0.19 in 0.02 in 0.19 in (2013)
Month to date precipitation 0.19 0.03  
Year to date precipitation 0.32 0.76  
Sea Level Pressure  
Sea Level Pressure 29.63 in    
Wind  
Wind Speed 5 mph (East)    
Max Wind Speed 31 mph    
Max Gust Speed 38 mph    
Visibility 6 miles    
Events Fog , Rain , Snow    
T = Trace of Precipitation, MM = Missing Value Source: NWS Daily Summary

Daily Weather History Graph

Daily Weather History Graph

Search for Another Location

Airport:

Trip Planner

Search our weather history database for the weather conditions in past years. The results will help you decide how hot, cold, wet, or windy it might be!

Date:

Astronomy

Mar. 03, 2013 Rise Set
Actual Time 6:25 AM MST 5:40 PM MST
Civil Twilight 5:55 AM MST 6:10 PM MST
Nautical Twilight 5:20 AM MST 6:44 PM MST
Astronomical Twilight 4:46 AM MST 7:19 PM MST
Moon No Moon Rise 9:20 AM MST (3/3)
Length of Visible Light 12h 14m
Length of Day
11h 15m
Waning Gibbous, 63% of the Moon is Illuminated
Mar 3
Waning Gibbous
Mar 4
Last Quarter
Mar 11
New
Mar 19
First Quarter
Mar 27
Full

Hourly Weather History & Observations

Time (MST) Temp. Windchill Dew Point Humidity Pressure Visibility Wind Dir Wind Speed Gust Speed Precip Events Conditions
12:53 AM 36.0 °F - 30.9 °F 82% 29.87 in 10.0 mi Calm Calm - N/A   Mostly Cloudy
1:53 AM 34.0 °F - 30.0 °F 85% 29.85 in 10.0 mi Calm Calm - N/A   Partly Cloudy
2:53 AM 33.1 °F - 28.9 °F 85% 29.81 in 10.0 mi Calm Calm - N/A   Mostly Cloudy
3:53 AM 33.1 °F - 30.0 °F 89% 29.79 in 10.0 mi Calm Calm - N/A   Overcast
5:53 AM 36.0 °F - 30.0 °F 79% 29.77 in 10.0 mi Calm Calm - N/A   Mostly Cloudy
6:53 AM 35.1 °F 32.2 °F 30.0 °F 82% 29.76 in 10.0 mi SE 3.5 mph - N/A   Overcast
8:53 AM 45.0 °F - 34.0 °F 65% 29.72 in 10.0 mi Calm Calm - N/A   Overcast
9:53 AM 50.0 °F - 34.0 °F 54% 29.69 in 10.0 mi Variable 3.5 mph - N/A   Overcast
10:53 AM 52.0 °F - 35.1 °F 53% 29.67 in 10.0 mi SSW 8.1 mph - N/A   Overcast
11:53 AM 55.0 °F - 33.1 °F 43% 29.63 in 10.0 mi WNW 13.8 mph - N/A   Overcast
12:53 PM 53.1 °F - 34.0 °F 48% 29.62 in 10.0 mi West 15.0 mph - 0.00 in   Overcast
1:53 PM 48.0 °F - 42.1 °F 80% 29.63 in 10.0 mi West 9.2 mph - 0.01 in Rain Light Rain
4:53 PM 45.0 °F 40.1 °F 42.1 °F 90% 29.60 in 10.0 mi NE 9.2 mph - 0.00 in   Overcast
5:53 PM 43.0 °F 37.2 °F 39.9 °F 89% 29.60 in 6.0 mi East 10.4 mph - N/A   Mostly Cloudy
6:29 PM 42.8 °F 38.0 °F 39.2 °F 87% 29.55 in 10.0 mi NE 8.1 mph - N/A   Overcast
6:38 PM 42.8 °F 37.0 °F 39.2 °F 87% 29.55 in 10.0 mi NE 10.4 mph - N/A   Overcast
6:53 PM 42.1 °F 38.4 °F 39.0 °F 89% 29.59 in 10.0 mi East 5.8 mph - N/A   Overcast
7:18 PM 39.2 °F 31.6 °F 37.4 °F 93% 29.54 in 9.0 mi East 12.7 mph - N/A   Scattered Clouds
7:53 PM 39.0 °F 31.4 °F 37.9 °F 96% 29.57 in 10.0 mi East 12.7 mph - N/A   Clear
8:28 PM 39.2 °F 31.6 °F 37.4 °F 93% 29.52 in 9.0 mi East 12.7 mph - N/A   Scattered Clouds
8:33 PM 39.2 °F 31.6 °F 37.4 °F 93% 29.52 in 2.5 mi East 12.7 mph - N/A   Mostly Cloudy
8:38 PM 39.2 °F 31.6 °F 37.4 °F 93% 29.52 in 0.8 mi East 12.7 mph - N/A   Mist
8:47 PM 39.2 °F 31.6 °F 37.4 °F 93% 29.52 in 0.2 mi East 12.7 mph - N/A Fog Fog
8:53 PM 39.0 °F 31.8 °F 37.9 °F 96% 29.55 in 0.2 mi East 11.5 mph - N/A Fog Fog
9:03 PM 39.2 °F 34.2 °F 37.4 °F 93% 29.56 in 1.0 mi Variable 6.9 mph 16.1 mph N/A   Mist
9:15 PM 37.4 °F 24.8 °F 35.6 °F 93% 29.61 in 3.0 mi West 31.1 mph 38.0 mph 0.01 in Rain Light Rain
9:20 PM 33.8 °F 20.8 °F 30.2 °F 87% 29.62 in 4.0 mi West 26.5 mph 38.0 mph 0.02 in Snow Light Snow
9:22 PM 33.8 °F 20.3 °F 30.2 °F 87% 29.62 in 1.5 mi WNW 28.8 mph 38.0 mph 0.03 in Snow Light Snow
9:29 PM 33.8 °F - 30.2 °F 87% 29.62 in 0.8 mi North - - 0.04 in Snow Light Snow
9:42 PM 33.8 °F - 30.2 °F 87% 29.62 in 1.0 mi North - - 0.07 in Snow Light Snow
9:53 PM 33.1 °F - 30.9 °F 92% 29.65 in 1.0 mi North - - 0.09 in Snow Light Snow
10:07 PM 33.8 °F - 30.2 °F 87% 29.60 in 1.5 mi North - - 0.02 in Snow Light Snow
10:27 PM 33.8 °F - 30.2 °F 87% 29.61 in 1.5 mi North - - 0.02 in Snow Light Snow
10:49 PM 33.8 °F - 30.2 °F 87% 29.61 in 2.5 mi North - - 0.02 in Snow Light Snow
10:53 PM 33.1 °F - 30.9 °F 92% 29.64 in 2.5 mi North - - 0.02 in Snow Light Snow
11:05 PM 33.8 °F - 30.2 °F 87% 29.61 in 1.2 mi North - - 0.00 in Snow Light Snow
11:25 PM 33.8 °F - 30.2 °F 87% 29.62 in 1.0 mi North - - 0.00 in Snow Light Snow
11:37 PM 33.8 °F - 30.2 °F 87% 29.62 in 2.0 mi North - - 0.01 in Snow Light Snow
11:45 PM 33.8 °F - 30.2 °F 87% 29.63 in 5.0 mi North - - 0.01 in Snow Light Snow
11:53 PM 33.1 °F - 30.0 °F 89% 29.67 in 7.0 mi North - - 0.01 in Snow Light Snow